Regional Weather Roundup
Issued by NWS

Home | Current Version | Previous Version | Text Only | Print | Product List | Glossary Off
Versions: 1 2 3 4 5 6 7 8 9 10 11 12 13 14 15 16 17 18 19 20 21 22 23 24 25 26 27 28 29 30 31 32 33 34 35 36 37 38 39 40 41 42 43 44 45 46 47 48 49 50

000
ASUS43 KMKX 071400
RWRWI

WISCONSIN REGIONAL WEATHER ROUNDUP
NATIONAL WEATHER SERVICE MILWAUKEE/SULLIVAN WI
900 AM CDT TUE JUL 07 2015

NOTE: "FAIR" INDICATES FEW OR NO CLOUDS BELOW 12,000 FEET WITH NO
SIGNIFICANT WEATHER AND/OR OBSTRUCTIONS TO VISIBILITY.

WIZ001-002-006>008-014>016-023>028-071500-
NORTHWEST WISCONSIN

CITY           SKY/WX    TMP DP  RH WIND       PRES   REMARKS
SUPERIOR ARPT  SUNNY     61  48  63 N9        30.15R
ASHLAND        SUNNY     60  50  69 N10       30.13R
HAYWARD        SUNNY     57  47  69 NE12      30.13S
SIREN          SUNNY     58  45  62 N8        30.15S
CUMBERLAND     SUNNY     55  45  67 N14       30.13S
RICE LAKE      MOSUNNY   58  45  61 N9        30.14S
CHETEK         MOSUNNY   57  47  68 N6        30.12S
LADYSMITH      PTSUNNY   56  49  78 NE8       30.13S
EAU CLAIRE     PTSUNNY   60  47  61 N7        30.12R
MENOMONIE      CLOUDY    58  46  64 N6        30.13R
NEW RICHMOND   SUNNY     58  46  65 N10       30.15R
OSCEOLA        SUNNY     57  47  68 N7        30.18R
$$

WIZ003>005-009-010-017-018-071500-
NORTH CENTRAL WISCONSIN

CITY           SKY/WX    TMP DP  RH WIND       PRES   REMARKS
MANITOWISH WTR CLOUDY    54  47  78 N8        30.10R
ARBOR VITAE    PTSUNNY   57  50  77 N13       30.09R
WOODRUFF       PTSUNNY   57  50  77 N13       30.09R
RHINELANDER    CLOUDY    54  45  71 N9G18     30.08S
EAGLE RIVER    CLOUDY    54  45  71 N12       30.07S
LAND O LAKES   CLOUDY    53  46  78 N13       30.09R
PHILLIPS       PTSUNNY   54  49  82 N8        30.10S
TOMAHAWK       PTSUNNY   54  48  78 N9        30.09S
MEDFORD        PTSUNNY   55  48  78 N12       30.09S
MERRILL        MOSUNNY   55  48  77 NE10      30.08S
$$

WIZ029-030-035-036-043>047-071500-
CENTRAL WISCONSIN

CITY           SKY/WX    TMP DP  RH WIND       PRES   REMARKS
WAUSAU         MOSUNNY   59  47  64 NW9       30.06R
MOSINEE        MOSUNNY   57  48  72 N10       30.07
MARSHFIELD     MOSUNNY   58  46  64 N10G20    30.08R
STEVENS POINT  SUNNY     56  47  71 N10       30.06R
WAUPACA        PTSUNNY   62  53  72 N7        30.04R
WAUTOMA        CLOUDY    61  55  82 N10       30.05R
WISC RAPIDS    SUNNY     60  47  61 NE14      30.08R
CAMP DOUGLAS   NOT AVBL
$$

WIZ011>013-019>022-031-037>040-048>050-071500-
NORTHEAST WISCONSIN

CITY           SKY/WX    TMP DP  RH WIND       PRES   REMARKS
ANTIGO         MOSUNNY   55  48  76 N13       30.06R
SHAWANO        MOSUNNY   61  48  62 N16       30.04S
OCONTO         MOSUNNY   59  49  70 N8        30.01S
STURGEON BAY   MOSUNNY   57  48  72 N15G24    30.03R
GREEN BAY      SUNNY     63  49  60 N16       30.02S
MANITOWOC      NOT AVBL
APPLETON       PTSUNNY   59  46  63 N14       30.03R
CLINTONVILLE   PTSUNNY   61  46  59 N12G17    30.04R
OSHKOSH        MOSUNNY   62  48  60 NE14      30.03R
$$

WIZ032>034-041-042-053>061-071500-
SOUTHWEST WISCONSIN

CITY           SKY/WX    TMP DP  RH WIND       PRES   REMARKS
LA CROSSE      SUNNY     61  47  59 N15       30.10R
SPARTA         MOSUNNY   58  47  67 N12       30.09R
VIROQUA        SUNNY     58  50  73 N13       30.08R
BOSCOBEL       CLOUDY    61  53  75 N5        30.06R
PRAIRIE DU CHI CLOUDY    61  52  71 NW10      30.06R
PLATTEVILLE    CLOUDY    59  55  87 N13       30.04R
$$

WIZ056-057-062-063-064-067-068-071500-
SOUTH CENTRAL WISCONSIN

CITY           SKY/WX    TMP DP  RH WIND       PRES   REMARKS
REEDSBURG      CLOUDY    58  54  85 N8        30.05R
BARABOO/DELLS  PTSUNNY   60  53  76 N9        30.05R
LONE ROCK      NOT AVBL
MINERAL POINT  PTSUNNY   59  55  88 N9        30.04R FOG
MADISON        PTSUNNY   62  55  77 N13       30.02R SMOKE
MIDDLETON      MOSUNNY   62  56  82 N9        30.03R
WATERTOWN      PTSUNNY   61  58  91 NE8       30.01R
MONROE         CLOUDY    63  57  82 N13       30.01R HAZE
JANESVILLE     CLOUDY    64  57  77 N14       29.99R HAZE
$$

WIZ051-052-058>065-066-070>072-071500-
SOUTHEAST WISCONSIN

CITY           SKY/WX    TMP DP  RH WIND       PRES   REMARKS
MILWAUKEE      MOSUNNY   62  51  67 N15G22    30.00R
WAUKESHA       SUNNY     59  52  77 N10G16    30.00R
MILWAUKEE/TIMM MOSUNNY   63  50  63 N12       30.00R
RACINE         CLOUDY    60  52  74 N14       30.01R
BURLINGTON     CLOUDY    57  54  91 N6        29.99R
KENOSHA        CLOUDY    61  51  70 N16G23    30.00R
FOND DU LAC    SUNNY     63  50  62 N16G23    30.02R
SHEBOYGAN      SUNNY     62  50  64 N10       30.00R
WEST BEND      MOSUNNY   59  50  72 N8        30.00R
JUNEAU         PTSUNNY   62  55  79 N9        30.02R
$$

LSZ147-162-071500-
LAKE SUPERIOR

STATION/POSITION TIME  TEMP    WIND        PRES    WAVE
                       AIR SEA DIR/SP/G            HT/PER
                 (UTC) (F)     (DEG/KT/KT) (MB)    (FT/S)
W MID LAKE BUOY  1250   45 39  310/ 10/ 10 1019.2R   1
DEVILS ISLAND    1300   56     340/ 13/ 16 1020.2R
PORT WING        1300   57     340/ 12/ 13 1020.3R
SAXON HARBOR     1300   58     350/ 13/ 15 1019.3R
$$

LMZ867-665-643>646-071500-
LAKE MICHIGAN

STATION/POSITION TIME  TEMP    WIND        PRES    WAVE
                       AIR SEA DIR/SP/G            HT/PER
                 (UTC) (F)     (DEG/KT/KT) (MB)    (FT/S)
CHAMBERS ISLAND  1300   58     330/ 15/ 20 1015.9R
N MID LAKE BUOY  1250   53 51  300/ 16/ 19 1014.2R   3/ 4
NORTHPORT PIER   1300   57     330/ 18/ 22 1015.6R
SISTER BAY       1329   59     360/ 19/ 25   N/A
ALGOMA LAKESHORE 1211          350/  9/ 13   N/A
KEWAUNEE LAKESHO 1300   58     350/ 12/ 17 1015.0R
SHEBOYGAN LAKESH 1300   58     340/ 13/ 15 1015.7R
PORT WASHINGTON  1300   63     360/  5/ 12 1015.9R
ATWATER BUOY     1300   59 58  360/ 10/ 14 1016.3R
MILWAUKEE LAKESH 1300   59      10/ 11/ 15   N/A
KENOSHA   LAKESH 1300   58      10/ 19/ 21 1014.6R
$$

TC  - TEMPERATURE IN CELSIUS
VSB - VISIBILITY IN STATUTE MILES
WCI - WIND CHILL INDEX
HX  - HEAT INDEX



USA.gov is the U.S. government's official web portal to all federal, state and local government web resources and services.